Regional Weather Roundup
Issued by NWS Binghamton, NY

Home | Current Version | Previous Version | Text Only | Print | Product List | Glossary On
Versions: 1 2 3 4 5 6 7 8 9 10 11 12 13 14 15 16 17 18 19 20 21 22 23 24 25 26 27 28 29 30 31 32 33 34 35 36 37 38 39 40 41 42 43 44 45 46 47 48 49 50
000
ASUS41 KBGM 231010
RWRBGM

REGIONAL WEATHER ROUNDUP
NATIONAL WEATHER SERVICE BINGHAMTON NY
600 AM EDT WED AUG 23 2017

Note: "fair" indicates few or no clouds below 12,000 feet with no
significant weather and/or obstructions to visibility.

* = Station(s) that does not report precipitation, such as rain,
snow, etc, also no thunder or fog.

NYZ009-015>018-022>025-036-037-044>046-055>057-062-231100
...Central New York...

CITY           SKY/WX    TMP DP  RH WIND       PRES   REMARKS
Binghamton     CLOUDY    56  53  90 NW6       29.87R
Cortland       FAIR      54  54 100 CALM      29.86R
Dansville      CLOUDY    57  55  93 CALM      29.86S
Elmira         CLOUDY    55  54  96 W3        29.86R
Seneca Falls   SUNNY     61  54  77 SW7       29.84S
Ithaca         CLEAR     55  52  89 W3        29.87R
Hamilton       CLEAR     54  52  94 CALM      29.85R
Hornell        MOCLDY    54  54 100 CALM      29.91R
Monticello     MOCLDY    62  60  93 W8        29.84R
Oneonta        CLEAR     57 N/A N/A W7        29.85S
Penn Yan       CLEAR     55  51  86 S7        29.85S
Rome           MOCLDY    60  57  89 W7        29.81R
Sidney         CLEAR     57  55  94 CALM      29.86R
Syracuse       PTCLDY    60  55  83 W12       29.81R
$$

PAZ038>040-043-044-047-048-072-231100
...Northeast Pennsylvania...

CITY           SKY/WX    TMP DP  RH WIND       PRES   REMARKS
Hazleton         N/A     64  55  72 NW9       29.90R
Scranton       CLOUDY    67  56  67 VRB5      29.86R
$$
&&
KEY
WCI = Wind Chill Index
VSB = Visibility
HX  = Heat Index
$$



USA.gov is the U.S. government's official web portal to all federal, state and local government web resources and services.